This demonstration page uses our WeatherBlox Daily Observations layout. Learn more.

Left ArrowRight Arrow

Hourly Observations for April 4, 2021

Temp ( °F °C ) Dew Point ( °F °C ) Humidity (%) Winds ( mph kmh ) Pressure ( in mb ) Visibility ( mi km ) Precip ( " mm )
12:53 am 00:53 Partly Cloudy 47 8.3 21 -6.1 36 36 Calm 29.95 1014 10 16 0.00 0.00
1:53 am 01:53 Mostly Cloudy 44 6.7 25 -3.9 47 47 SSW 7 11 29.96 1014 10 16 0.00 0.00
2:53 am 02:53 Partly Cloudy 45 7.2 25 -3.9 46 46 W 7 11 29.93 1014 10 16 0.00 0.00
3:53 am 03:53 Mostly Cloudy 46 7.8 25 -3.9 44 44 Calm 29.90 1013 10 16 0.00 0.00
4:53 am 04:53 Mostly Cloudy 44 6.7 26 -3.3 49 49 S 3 6 29.89 1012 10 16 0.00 0.00
5:53 am 05:53 Clear 47 8.3 25 -3.9 42 42 SW 10 17 29.88 1012 10 16 0.00 0.00
6:53 am 06:53 Mostly Sunny 46 7.8 25 -3.9 44 44 WSW 9 15 29.88 1012 10 16 0.00 0.00
7:53 am 07:53 Sunny 48 8.9 26 -3.3 42 42 SW 15 24 29.88 1012 10 16 0.00 0.00
8:53 am 08:53 Sunny 56 13.3 26 -3.3 32 32 SW 18 30 29.89 1012 10 16 0.00 0.00
9:53 am 09:53 Sunny 55 12.8 25 -3.9 31 31 SW 20 31 29.88 1012 10 16 0.00 0.00
10:53 am 10:53 Sunny 55 12.8 26 -3.3 33 33 SW 15 24 29.87 1012 10 16 0.00 0.00
11:53 am 11:53 Sunny 59 15 26 -3.3 28 28 WSW 13 20 29.85 1011 10 16 0.00 0.00
12:53 pm 12:53 Sunny 68 20 22 -5.6 17 17 WSW 21 33 29.81 1009 10 16 0.00 0.00
1:53 pm 13:53 Sunny 70 21.1 21 -6.1 16 16 W 23 37 29.79 1009 10 16 0.00 0.00
2:53 pm 14:53 Partly Cloudy 70 21.1 20 -6.7 15 15 W 23 37 29.77 1008 10 16 0.00 0.00
3:53 pm 15:53 Sunny 67 19.4 25 -3.9 20 20 WNW 21 33 29.77 1008 10 16 0.00 0.00
4:53 pm 16:53 Mostly Cloudy 64 17.8 24 -4.4 22 22 NW 23 37 29.78 1008 10 16 0.00 0.00
5:53 pm 17:53 Mostly Sunny 62 16.7 27 -2.8 26 26 NW 13 20 29.77 1008 10 16 0.00 0.00
6:53 pm 18:53 Mostly Cloudy 60 15.6 28 -2.2 30 30 WSW 3 6 29.79 1009 10 16 0.00 0.00
7:53 pm 19:53 Mostly Cloudy 57 13.9 28 -2.2 33 33 undefined N/A 29.81 1009 10 16 0.00 0.00
8:53 pm 20:53 Cloudy 54 12.2 32 0 43 43 NW 10 17 29.83 1010 10 16 0.00 0.00
9:53 pm 21:53 Cloudy 52 11.1 32 0 47 47 NW 8 13 29.85 1011 10 16 0.00 0.00
10:24 pm 22:24 Cloudy 48 8.9 30 -1.1 50 50 NE 12 19 29.88 1012 10 16 0.00 0.00
10:53 pm 22:53 Cloudy 47 8.3 30 -1.1 52 52 N 6 9 29.89 1012 10 16 0.00 0.00
11:53 pm 23:53 Cloudy 45 7.2 31 -0.6 58 58 N 9 15 29.92 1013 10 16 0.00 0.00

Powered by AerisWeather